Location: Dannhausen
(51.8650°N, 10.1026°E)
Time: 01:14:56
(UTC+00:00)

Cosmos 2233 Rocket - Pass Details

Date: 13 August 2020
Orbit: 952 x 992 km, 82.9° (Epoch: 26 September)

Event Time Altitude Azimuth Distance (km) Brightness Sun altitude
Exits shadow 20:01:19 - 97° (E) 2,992 6.0 -10.6°
Reaches altitude 10° 20:03:32 10° 78° (ENE) 2,761 6.0 -10.9°
Maximum altitude 20:04:19 10° 71° (ENE) 2,744 6.1 -10.9°
Drops below altitude 10° 20:05:06 10° 63° (ENE) 2,763 6.2 -11.0°
Sets 20:10:34 0° 25° (NNE) 3,717 7.3 -11.7°
